Satellite: NOAA-14 Catalog number: 23455 Epoch time: 10097.79514847 Element set: 0011 Inclination: 098.8779 deg RA of node: 179.0241 deg Eccentricity: 0.0010336 Arg of perigee: 078.6649 deg Mean anomaly: 281.5679 deg Mean motion: 14.13781188 rev/day Decay rate: -2.21e-06 rev/day^2 Epoch rev: 78755 Checksum: 341
Satellite: NOAA-15 Catalog number: 25338 Epoch time: 10097.85977361 Element set: 0331 Inclination: 098.6156 deg RA of node: 086.0623 deg Eccentricity: 0.0009639 Arg of perigee: 281.6748 deg Mean anomaly: 078.3351 deg Mean motion: 14.24816994 rev/day Decay rate: 1.98e-06 rev/day^2 Epoch rev: 61873 Checksum: 348
Satellite: RESURS Catalog number: 25394 Epoch time: 10097.60104273 Element set: 0475 Inclination: 098.3092 deg RA of node: 119.5110 deg Eccentricity: 0.0002417 Arg of perigee: 077.9149 deg Mean anomaly: 282.2296 deg Mean motion: 14.24198571 rev/day Decay rate: 3.01e-06 rev/day^2 Epoch rev: 61030 Checksum: 275
Satellite: FENGYUN1 Catalog number: 25730 Epoch time: 10097.96464884 Element set: 0016 Inclination: 098.7816 deg RA of node: 064.7567 deg Eccentricity: 0.0024557 Arg of perigee: 104.2075 deg Mean anomaly: 256.1828 deg Mean motion: 14.08215178 rev/day Decay rate: 1.119e-05 rev/day^2 Epoch rev: 56180 Checksum: 316
Satellite: OKEAN-0 Catalog number: 25860 Epoch time: 10097.46015718 Element set: 0961 Inclination: 097.8264 deg RA of node: 072.5895 deg Eccentricity: 0.0001004 Arg of perigee: 044.8132 deg Mean anomaly: 315.3153 deg Mean motion: 14.73628438 rev/day Decay rate: 1.04e-06 rev/day^2 Epoch rev: 57648 Checksum: 297
Satellite: NOAA-16 Catalog number: 26536 Epoch time: 10097.88953581 Element set: 0807 Inclination: 099.1744 deg RA of node: 113.6905 deg Eccentricity: 0.0010731 Arg of perigee: 170.0638 deg Mean anomaly: 190.0757 deg Mean motion: 14.12552295 rev/day Decay rate: 1.01e-06 rev/day^2 Epoch rev: 49190 Checksum: 304
Satellite: NOAA-17 Catalog number: 27453 Epoch time: 10097.94988536 Element set: 0813 Inclination: 098.4384 deg RA of node: 151.1972 deg Eccentricity: 0.0011367 Arg of perigee: 347.9697 deg Mean anomaly: 012.1181 deg Mean motion: 14.24146908 rev/day Decay rate: 2.06e-06 rev/day^2 Epoch rev: 40470 Checksum: 321
Satellite: NOAA-18 Catalog number: 28654 Epoch time: 10097.97413749 Element set: 0297 Inclination: 098.9445 deg RA of node: 044.4610 deg Eccentricity: 0.0013533 Arg of perigee: 250.5802 deg Mean anomaly: 109.3934 deg Mean motion: 14.11345655 rev/day Decay rate: 5.01e-06 rev/day^2 Epoch rev: 25153 Checksum: 304
Satellite: NOAA-19 Catalog number: 33591 Epoch time: 10097.94693901 Element set: 0496 Inclination: 098.7833 deg RA of node: 041.5801 deg Eccentricity: 0.0014816 Arg of perigee: 125.6122 deg Mean anomaly: 234.6404 deg Mean motion: 14.11041456 rev/day Decay rate: 8.0e-07 rev/day^2 Epoch rev: 06000 Checksum: 279
/EX SB KEPS @ AMSAT $ORB10098.M Orbital Elements 10098.MISC
HR AMSAT ORBITAL ELEMENTS FOR MANNED AND MISCELLANEOUS SATELLITES FROM WA5QGD FORT WORTH,TX April 8, 2010 Send Subscribe/unsubscribe to KEPS at http://www.amsat.org/mailman/listinfo/keps BID: ORB10098.M TO ALL RADIO AMATEURS BT
Satellite: HUBBLE Catalog number: 20580 Epoch time: 10096.10228843 Element set: 546 Inclination: 028.4699 deg RA of node: 350.4344 deg Eccentricity: 0.0003568 Arg of perigee: 151.7519 deg Mean anomaly: 208.3319 deg Mean motion: 15.00940823 rev/day Decay rate: 7.73e-06 rev/day^2 Epoch rev: 89391 Checksum: 300
Satellite: ISS Catalog number: 25544 Epoch time: 10098.86896992 Element set: 935 Inclination: 051.6458 deg RA of node: 226.4374 deg Eccentricity: 0.0005551 Arg of perigee: 153.6324 deg Mean anomaly: 356.1426 deg Mean motion: 15.74509252 rev/day Decay rate: 2.3253e-04 rev/day^2 Epoch rev: 65255 Checksum: 321
Satellite: CO-58 Catalog number: 28895 Epoch time: 10098.68829750 Element set: 553 Inclination: 098.0231 deg RA of node: 345.4309 deg Eccentricity: 0.0018732 Arg of perigee: 140.6093 deg Mean anomaly: 219.6444 deg Mean motion: 14.59872629 rev/day Decay rate: 4.05e-06 rev/day^2 Epoch rev: 23684 Checksum: 341
Satellite: FALCON Catalog number: 30776 Epoch time: 10097.43311821 Element set: 0806 Inclination: 035.4326 deg RA of node: 113.8286 deg Eccentricity: 0.0001649 Arg of perigee: 314.8561 deg Mean anomaly: 045.2022 deg Mean motion: 15.03572631 rev/day Decay rate: 1.206e-05 rev/day^2 Epoch rev: 16940 Checksum: 262
Satellite: MAST Catalog number: 31126 Epoch time: 10098.62861755 Element set: 836 Inclination: 097.9451 deg RA of node: 144.2124 deg Eccentricity: 0.0095757 Arg of perigee: 082.2065 deg Mean anomaly: 278.9999 deg Mean motion: 14.53572701 rev/day Decay rate: 2.75e-06 rev/day^2 Epoch rev: 15795 Checksum: 335
Satellite: CAPE1 Catalog number: 31130 Epoch time: 10097.09693798 Element set: 0856 Inclination: 097.9508 deg RA of node: 140.3112 deg Eccentricity: 0.0104192 Arg of perigee: 094.8648 deg Mean anomaly: 266.4494 deg Mean motion: 14.52157857 rev/day Decay rate: 2.80e-06 rev/day^2 Epoch rev: 15734 Checksum: 321
Satellite: COMPASS Catalog number: 32787 Epoch time: 10098.68645918 Element set: 640 Inclination: 097.8986 deg RA of node: 164.3825 deg Eccentricity: 0.0016272 Arg of perigee: 148.2954 deg Mean anomaly: 211.9239 deg Mean motion: 14.81822414 rev/day Decay rate: 1.247e-05 rev/day^2 Epoch rev: 10520 Checksum: 321
Satellite: AAUSAT2 Catalog number: 32788 Epoch time: 10097.75087755 Element set: 0634 Inclination: 097.8999 deg RA of node: 163.5730 deg Eccentricity: 0.0015868 Arg of perigee: 152.0781 deg Mean anomaly: 208.1288 deg Mean motion: 14.81958798 rev/day Decay rate: 1.159e-05 rev/day^2 Epoch rev: 10507 Checksum: 358
Satellite: DO-64 Catalog number: 32789 Epoch time: 10097.76575007 Element set: 0652 Inclination: 097.9060 deg RA of node: 163.9838 deg Eccentricity: 0.0016249 Arg of perigee: 150.2485 deg Mean anomaly: 209.9656 deg Mean motion: 14.82062823 rev/day Decay rate: 1.873e-05 rev/day^2 Epoch rev: 10507 Checksum: 336
Satellite: CO-66 Catalog number: 32791 Epoch time: 10097.21271582 Element set: 0631 Inclination: 097.8996 deg RA of node: 162.9503 deg Eccentricity: 0.0016135 Arg of perigee: 150.8574 deg Mean anomaly: 209.3601 deg Mean motion: 14.81613500 rev/day Decay rate: 7.49e-06 rev/day^2 Epoch rev: 10494 Checksum: 307
Satellite: RS-30 Catalog number: 32953 Epoch time: 10098.42540834 Element set: 585 Inclination: 082.4979 deg RA of node: 073.0549 deg Eccentricity: 0.0017274 Arg of perigee: 255.1365 deg Mean anomaly: 104.7800 deg Mean motion: 12.43004713 rev/day Decay rate: 1.0e-07 rev/day^2 Epoch rev: 8507 Checksum: 283
Satellite: TACSAT-3 Catalog number: 35001 Epoch time: 10097.94859470 Element set: 0258 Inclination: 040.4562 deg RA of node: 275.8282 deg Eccentricity: 0.0020879 Arg of perigee: 201.6136 deg Mean anomaly: 158.3799 deg Mean motion: 15.41085570 rev/day Decay rate: 1.2344e-04 rev/day^2 Epoch rev: 04979 Checksum: 319
Satellite: PHARMSAT Catalog number: 35002 Epoch time: 10097.86292862 Element set: 244 Inclination: 040.4697 deg RA of node: 274.6113 deg Eccentricity: 0.0024214 Arg of perigee: 205.7662 deg Mean anomaly: 154.1953 deg Mean motion: 15.41674318 rev/day Decay rate: 1.0942e-04 rev/day^2 Epoch rev: 4979 Checksum: 295
Satellite: HAWKSAT1 Catalog number: 35003 Epoch time: 10097.83416732 Element set: 258 Inclination: 040.4577 deg RA of node: 271.4312 deg Eccentricity: 0.0021115 Arg of perigee: 217.2077 deg Mean anomaly: 142.7286 deg Mean motion: 15.44059560 rev/day Decay rate: 2.2159e-04 rev/day^2 Epoch rev: 4983 Checksum: 280
Satellite: CP6 Catalog number: 35004 Epoch time: 10097.86381044 Element set: 0256 Inclination: 040.4573 deg RA of node: 270.7824 deg Eccentricity: 0.0020380 Arg of perigee: 219.4848 deg Mean anomaly: 140.4491 deg Mean motion: 15.44642324 rev/day Decay rate: 2.6351e-04 rev/day^2 Epoch rev: 04983 Checksum: 290
Satellite: AEROCUB3 Catalog number: 35005 Epoch time: 10098.80297784 Element set: 270 Inclination: 040.4724 deg RA of node: 265.0324 deg Eccentricity: 0.0019566 Arg of perigee: 228.1403 deg Mean anomaly: 131.7764 deg Mean motion: 15.47157148 rev/day Decay rate: 5.6845e-04 rev/day^2 Epoch rev: 4998 Checksum: 315
Satellite: DRAGNSAT Catalog number: 35690 Epoch time: 10076.22711312 Element set: 316 Inclination: 051.6170 deg RA of node: 315.4586 deg Eccentricity: 0.0004999 Arg of perigee: 310.9891 deg Mean anomaly: 057.3269 deg Mean motion: 16.42150010 rev/day Decay rate: 5.715194e-02 rev/day^2 Epoch rev: 3656 Checksum: 289
Satellite: POLLUX Catalog number: 35693 Epoch time: 10087.99866888 Element set: 352 Inclination: 051.6099 deg RA of node: 254.5746 deg Eccentricity: 0.0006270 Arg of perigee: 294.4866 deg Mean anomaly: 097.5899 deg Mean motion: 16.52338462 rev/day Decay rate: 2.3496735e-01 rev/day^2 Epoch rev: 3839 Checksum: 384
Satellite: CASTOR Catalog number: 35694 Epoch time: 10098.77091105 Element set: 263 Inclination: 051.6386 deg RA of node: 209.1601 deg Eccentricity: 0.0004118 Arg of perigee: 304.2432 deg Mean anomaly: 055.8175 deg Mean motion: 15.92841645 rev/day Decay rate: 7.5915e-04 rev/day^2 Epoch rev: 3996 Checksum: 303
Satellite: METEOR-M Catalog number: 35865 Epoch time: 10098.74780315 Element set: 189 Inclination: 098.7657 deg RA of node: 153.0185 deg Eccentricity: 0.0001920 Arg of perigee: 189.1912 deg Mean anomaly: 170.9195 deg Mean motion: 14.21829466 rev/day Decay rate: 1.76e-06 rev/day^2 Epoch rev: 2885 Checksum: 328
Satellite: RS-38 Catalog number: 35869 Epoch time: 10098.79704852 Element set: 191 Inclination: 098.7644 deg RA of node: 153.0947 deg Eccentricity: 0.0004032 Arg of perigee: 198.4037 deg Mean anomaly: 161.6986 deg Mean motion: 14.21978826 rev/day Decay rate: 1.77e-06 rev/day^2 Epoch rev: 2886 Checksum: 355
/EX
participants (1)
-
Ray Hoad